Location: Great Malvern
(52.1167°N, 2.3167°W)
Time: 00:46:45
(UTC+00:00)

NOSS 3-2 (A) - Pass Details

Date: 18 September 2020
Orbit: 795 x 1413 km, 63.4° (Epoch: 02 October)

Event Time Altitude Azimuth Distance (km) Brightness Sun altitude
Rises 19:58:00 0° 314° (NW) 3,897 8.0 -16.0°
Reaches altitude 10° 20:00:31 10° 313° (NW) 3,021 7.2 -16.3°
Maximum altitude 20:07:51 75° 229° (SW) 1,296 4.1 -17.3°
Enters shadow 20:13:56 20° 148° (SSE) 2,670 5.3 -18.2°
